User: anonymous   Login
Location: Coleto Creek Park and Reservoir
(28.7196°N, 97.1740°W)
Time: 21:01:32
(UTC-06:00)
Language:

Hubble Space Telescope - Orbit

View from above orbital plane
View from above orbital plane
View from above satellite
View from above satellite

Ground track
Ground track

The orbit data is extracted from the following two-line orbital elements,

1 20580U 90037B   17022.95987289 +.00000550 +00000-0 +23012-4 0  9995
2 20580 028.4690 247.0728 0002865 053.7127 088.3853 15.08651422268243
Epoch (UTC): 22 January 2017 23:02:13
Eccentricity: 0.0002865
inclination: 28.4690°
perigee height: 538 km
apogee height: 542 km
right ascension of ascending node: 247.0728°
argument of perigee: 53.7127°
revolutions per day: 15.08651422
mean anomaly at epoch: 88.3853°
orbit number at epoch: 26824

The dashed part of the orbit path shows where the satellite is in the earth's shadow,  

DLR